GFSFLT1_prec_cthk_204.txt.gz
RH
28 29 32 33 40 48 46 50 50 51 50 52 55 55 54 54 58 58 54 54 54 53 55 52 52 55 61 56 56 57 59 61
28 30 32 33 35 37 39 46 54 55 55 54 54 54 56 56 60 62 62 63 65 66 63 61 59 57 58 52 54 59 62 61
25 27 28 32 35 37 39 43 47 41 46 49 54 56 60 62 62 68 74 77 78 74 74 69 63 61 57 52 58 62 61 61
28 28 26 28 29 31 34 37 41 45 49 53 55 58 61 67 72 77 79 83 84 81 77 76 70 67 59 58 61 63 65 62
33 32 33 34 31 32 34 37 38 41 47 53 62 65 68 70 77 88 86 88 85 81 81 76 73 68 64 62 66 64 62 61
38 37 35 33 32 32 33 36 39 40 47 49 59 68 76 79 82 92 88 96 94 91 89 83 79 72 66 64 65 66 68 62
40 36 36 36 36 36 35 36 40 43 48 51 57 68 71 81 86 97 90 96 96 92 90 91 85 76 71 68 67 65 63 67
46 43 40 40 40 39 35 33 36 40 40 45 51 61 73 81 87 86 88 93 94 97 94 89 91 88 79 69 65 67 65 61
47 47 40 38 38 37 38 40 41 41 40 44 52 61 70 80 80 84 92 91 95 97 98 97 94 81 74 74 69 65 60 54
48 48 49 41 33 33 36 42 48 51 51 49 52 61 70 87 93 96 99 99 96 98 98 97 94 90 81 71 67 58 58 57
44 41 38 40 42 38 38 47 56 65 67 71 67 70 77 84 94 99 98 99 97 93 91 86 81 78 72 65 62 59 58 54
38 37 36 36 39 44 51 56 67 78 85 86 91 92 95 97 98 98 98 98 92 90 89 84 74 72 68 64 65 64 60 57
33 33 33 35 36 44 53 60 71 73 86 99 90 92 97 95 94 94 92 94 98 97 97 94 85 75 72 70 70 68 65 60
29 27 33 39 42 50 59 64 72 77 84 91 93 93 93 92 97 93 89 87 92 95 96 93 88 87 92 83 76 71 67 62
31 34 40 43 50 57 61 66 65 68 75 81 84 88 84 80 93 91 90 87 85 81 88 95 96 91 93 95 84 71 67 67
39 45 51 60 64 71 72 72 70 69 68 73 72 71 77 81 79 90 84 86 87 82 82 84 88 96 98 98 91 77 72 69
48 56 63 73 79 79 73 69 65 67 68 68 63 57 59 56 58 71 77 84 87 89 88 83 87 90 93 95 94 85 74 68
63 73 74 75 70 64 59 48 41 52 54 50 53 54 51 54 54 63 66 79 86 87 95 95 89 82 81 80 80 83 80 79
73 74 68 66 61 54 53 45 41 40 50 48 49 55 62 66 72 80 78 86 88 92 97 91 94 92 86 82 80 80 82 89

GFSFLT1_prec_cthk_210.txt.gz
RH
33 36 35 39 48 58 61 62 57 55 57 59 62 65 67 67 64 62 64 66 66 66 65 64 63 57 53 57 56 56 56 58
33 34 34 35 39 49 51 55 52 47 49 51 55 61 61 61 61 62 62 64 64 63 65 62 62 61 60 59 59 62 64 65
40 41 35 32 33 35 48 45 46 44 43 50 50 53 57 54 55 56 56 55 58 61 66 65 65 67 66 61 61 64 68 73
42 40 35 33 32 34 40 41 39 40 39 39 40 43 45 46 48 53 55 58 64 63 66 71 70 70 73 68 65 68 72 77
40 37 36 35 33 32 33 33 34 34 35 38 40 40 40 44 47 52 54 55 52 59 71 71 73 75 79 78 78 77 78 83
40 39 41 38 38 36 34 35 36 36 35 35 36 37 37 39 41 44 50 52 54 62 59 84 81 83 92 84 93 93 90 96
41 40 40 40 40 40 41 41 41 39 38 35 33 33 34 35 35 41 48 51 58 60 69 77 80 82 90 93 98 95 96 98
48 48 45 45 45 46 46 45 43 41 37 35 33 32 30 33 38 43 49 52 59 64 72 73 84 90 85 92 98 98 97 98
47 48 49 47 47 47 46 44 41 39 40 33 33 34 36 39 43 52 60 61 66 71 73 76 79 80 83 86 93 96 98 98
53 55 54 52 51 49 44 39 43 41 38 40 38 41 52 61 67 67 67 72 74 76 78 77 83 87 88 91 95 95 98 97
57 52 51 48 46 42 36 35 43 46 38 43 40 48 66 72 76 91 96 92 91 91 91 90 92 98 98 98 98 98 98 97
54 53 50 45 41 40 40 40 34 38 50 57 65 60 73 80 78 78 75 85 92 95 98 98 98 98 96 97 98 98 98 98
56 53 47 43 44 48 51 36 32 38 51 47 94 56 77 78 69 65 68 79 90 96 98 98 98 97 96 98 98 98 98 98
57 49 47 46 46 50 48 41 40 40 46 54 54 68 65 77 70 70 76 78 91 95 98 98 97 97 97 96 98 97 93 88
53 53 51 46 42 46 47 42 44 50 55 58 60 69 76 80 73 67 76 82 88 95 97 96 98 94 89 87 88 85 82 85
53 53 51 47 48 57 56 48 50 58 61 68 73 69 69 67 72 65 69 75 85 93 94 98 97 98 90 87 82 78 80 79
51 51 47 50 60 64 66 66 55 56 58 61 63 58 57 61 58 60 57 62 66 78 91 95 98 98 95 91 88 84 84 83
45 46 46 42 48 65 79 67 62 66 68 62 58 59 68 64 59 64 54 59 61 61 69 81 85 94 98 94 84 87 86 84
44 45 46 42 46 51 65 71 68 69 66 61 61 56 53 51 50 53 59 61 64 65 67 68 77 79 89 93 91 92 88 85

GFSFLT1_prec_cthk_216.txt.gz
RH
28 30 33 38 44 47 48 50 50 50 55 62 67 69 64 65 67 67 75 77 79 78 81 83 86 87 85 90 83 79 76 74
29 30 32 35 40 47 52 57 56 53 51 52 52 51 48 46 49 52 55 81 77 69 65 71 79 81 82 84 88 82 81 77
32 34 35 37 41 46 50 50 51 48 44 41 42 45 42 44 45 45 48 50 50 50 54 52 55 61 67 73 80 86 84 81
32 33 35 38 39 40 42 44 38 35 34 36 36 39 41 42 43 46 48 53 53 49 55 53 54 62 62 63 67 71 82 79
37 38 40 41 43 44 42 39 37 37 38 40 39 40 41 40 41 45 48 54 56 57 59 60 60 63 65 62 73 69 68 81
42 42 42 41 40 38 36 36 39 41 44 46 45 44 42 38 38 40 46 45 52 60 57 61 53 48 54 50 59 56 63 73
46 46 44 39 37 38 39 41 44 47 50 51 49 48 40 34 34 36 39 43 46 42 42 48 49 49 55 65 69 67 77 75
44 44 43 40 41 43 43 45 49 53 56 55 50 46 40 36 33 35 39 40 40 43 47 47 52 55 55 61 60 75 88 77
45 45 45 46 45 44 47 52 54 54 52 48 41 40 41 39 39 48 50 48 52 50 48 47 54 61 69 67 65 65 68 77
49 50 50 47 47 48 49 48 50 52 50 44 41 43 44 40 44 52 54 51 51 48 48 57 61 67 72 79 80 82 80 85
49 48 47 46 46 47 47 49 52 52 48 43 39 41 41 39 41 54 61 56 57 64 66 65 65 65 68 75 83 88 94 97
51 49 49 49 49 49 51 54 52 52 47 41 40 38 36 34 38 55 53 55 61 70 68 66 66 68 73 76 81 95 98 94
53 53 52 51 51 52 53 54 52 47 42 41 39 38 38 36 39 46 55 60 67 74 75 70 65 64 74 83 92 98 93 98
56 53 52 50 50 52 52 55 48 45 41 42 42 43 44 39 43 47 54 60 67 76 76 69 63 68 86 94 99 98 98 98
54 52 51 53 54 55 56 51 45 42 40 42 43 38 42 45 45 48 52 59 67 69 67 65 64 74 94 98 98 98 98 98
57 57 57 57 56 54 48 44 42 38 35 44 48 40 42 54 53 54 64 62 64 61 61 59 62 74 93 97 98 97 95 95
59 57 54 53 50 47 44 42 38 34 37 38 41 42 46 55 63 67 63 67 65 63 63 62 59 62 83 97 97 97 91 90
57 55 53 50 49 48 43 30 28 32 36 38 47 62 66 62 68 65 65 60 70 62 57 53 56 58 63 85 96 97 92 85
56 56 55 53 50 43 29 28 35 37 34 31 34 47 75 74 64 68 64 65 45 46 52 53 54 57 64 71 89 98 97 91

GFSFLT1_prec_cthk_219.txt.gz
RH
27 27 27 30 35 40 43 45 48 53 54 56 57 56 54 53 49 45 47 50 57 70 81 79 81 83 88 93 94 94 91 93
27 28 29 32 37 41 46 48 51 54 54 56 53 53 51 50 44 45 48 46 50 56 66 66 55 53 59 72 84 86 84 94
28 29 32 34 38 44 49 55 57 58 59 57 53 51 50 46 40 42 44 44 45 48 56 57 55 54 55 57 70 79 82 91
32 32 33 36 41 47 54 58 58 59 54 45 40 39 40 40 40 40 40 41 43 44 47 53 59 57 56 59 68 72 88 80
36 37 39 41 44 50 53 55 55 48 40 39 41 42 43 44 44 42 38 36 36 41 43 49 52 53 56 58 70 78 80 80
41 42 43 45 46 48 50 49 44 42 43 44 44 44 46 49 46 40 38 33 30 32 37 40 45 47 47 55 57 70 69 71
43 42 43 43 43 44 45 45 44 44 44 45 45 49 54 51 46 43 38 36 35 34 37 41 46 52 54 54 58 59 64 62
43 42 42 42 43 44 44 43 43 43 45 48 53 56 49 45 43 41 41 42 46 46 45 46 49 47 52 57 58 68 62 78
45 46 46 46 46 46 45 45 46 48 52 55 54 52 44 41 38 34 39 42 45 52 51 47 45 48 49 51 54 60 67 71
47 47 48 49 50 50 50 50 51 53 51 51 51 46 43 41 38 36 35 40 43 54 55 53 53 50 52 56 58 62 64 69
49 50 51 50 48 48 48 48 47 48 49 50 48 45 42 39 36 34 34 40 48 52 57 61 61 57 55 64 64 69 72 70
50 50 48 47 47 47 49 49 49 52 51 49 50 47 40 34 34 35 37 44 53 51 53 58 60 67 69 71 73 71 66 71
52 51 48 49 50 50 51 52 53 52 52 54 51 44 42 36 33 37 38 41 44 47 50 59 69 70 79 74 75 70 78 82
52 50 52 53 55 54 53 55 54 55 57 56 49 47 44 36 36 39 40 41 38 43 52 62 71 74 78 79 77 78 93 94
54 53 56 57 58 57 59 60 59 57 54 51 48 44 43 40 39 37 38 46 48 49 55 68 70 69 68 71 76 91 99 98
59 61 61 64 63 65 67 65 57 50 45 42 42 43 38 40 41 40 46 52 68 64 71 75 73 63 67 70 75 94 98 98
61 64 67 69 70 68 61 57 54 49 45 44 40 31 28 34 45 47 58 57 63 75 76 81 75 62 60 61 72 89 95 96
67 69 70 68 65 61 60 57 52 49 44 39 30 30 31 29 34 41 67 72 73 75 74 68 62 65 61 55 68 78 94 98
70 70 66 62 62 61 59 55 52 48 38 32 32 31 30 31 36 43 51 82 77 71 64 62 51 53 61 58 64 73 85 98

GFSFLT1_prec_cthk_222.txt.gz
RH
26 27 28 29 30 34 40 44 46 48 52 54 55 58 57 60 56 54 52 50 50 54 55 55 63 65 66 67 67 69 78 89
24 25 26 27 29 34 39 46 49 51 53 54 55 61 57 58 53 44 46 45 48 47 45 51 58 60 63 57 53 60 62 72
25 26 27 28 30 34 41 48 52 54 57 58 60 62 58 47 43 37 38 39 41 41 42 42 46 51 56 54 55 59 62 65
26 28 30 32 34 37 44 51 56 59 62 63 63 51 38 36 37 38 41 40 41 40 41 40 41 43 44 47 58 57 63 67
29 30 32 35 38 43 49 55 59 64 63 65 46 38 38 39 40 43 43 44 42 38 33 31 34 35 38 42 50 54 57 65
33 34 34 36 41 47 53 58 62 62 57 41 41 41 41 42 46 48 48 48 42 37 33 31 31 34 38 43 47 51 58 68
39 40 39 40 43 47 51 54 54 46 43 43 43 44 45 48 50 51 52 49 43 37 35 35 35 34 36 39 41 50 50 51
40 40 41 41 42 44 45 44 44 43 44 45 47 48 51 54 54 50 46 43 36 36 37 36 39 44 44 47 49 47 47 54
41 39 38 39 39 41 43 44 45 47 49 53 54 57 57 54 50 47 43 34 29 31 35 34 38 44 46 49 47 48 51 50
42 39 40 42 42 43 45 47 48 50 53 55 55 53 52 52 51 47 38 29 28 29 34 36 38 48 50 52 49 50 57 57
44 44 44 45 46 48 48 48 50 52 53 53 52 53 54 54 54 51 44 35 30 30 36 39 42 48 50 51 51 55 59 64
46 45 46 48 50 50 50 49 50 52 55 56 57 59 59 59 56 50 46 40 33 30 36 44 47 50 53 55 59 66 67 70
50 52 51 51 52 50 51 53 55 55 56 59 60 61 64 61 55 54 49 45 36 34 40 41 44 47 55 59 68 71 75 74
54 56 58 57 54 53 53 56 58 59 61 59 64 67 62 56 55 52 54 45 46 44 42 43 45 47 60 72 85 85 76 73
57 60 60 55 53 55 57 60 62 62 64 70 67 63 57 54 53 52 48 47 47 44 47 50 59 71 80 83 79 73 72 74
61 60 58 56 56 58 61 64 65 70 68 64 60 55 56 51 48 40 34 40 42 48 52 65 74 89 90 87 74 78 73 71
61 61 61 60 62 64 66 70 69 67 64 61 62 59 54 50 40 33 30 31 42 49 54 69 77 90 95 93 88 67 67 69
58 57 60 65 69 72 72 70 68 63 62 62 61 58 52 42 36 32 30 31 38 42 51 81 81 88 89 76 68 70 61 69
61 63 67 71 73 74 73 67 65 65 65 64 60 53 42 36 34 34 33 36 41 46 54 71 92 92 81 63 60 65 62 66

GFSFLT1_prec_cthk_228.txt.gz
RH
25 28 31 33 34 36 38 36 36 38 42 44 46 47 51 53 55 57 58 62 58 51 44 43 44 46 47 49 47 53 50 53
27 28 30 32 34 35 37 39 39 38 41 46 49 53 58 59 60 65 68 68 49 39 43 47 45 47 49 49 46 46 50 47
26 27 26 27 30 34 36 38 40 38 43 50 52 58 61 65 69 71 67 57 41 35 37 43 46 49 52 50 42 38 44 43
27 26 26 25 27 30 33 36 38 39 46 51 56 63 67 72 76 72 64 40 36 39 43 47 50 51 46 37 32 37 39 39
29 29 29 30 30 30 33 36 39 43 49 53 61 70 80 80 78 74 49 38 40 43 50 54 55 53 43 32 29 30 36 44
30 31 31 32 35 32 37 41 44 47 55 62 71 80 84 81 73 53 40 43 46 50 54 57 57 50 42 37 36 34 35 40
32 33 33 35 35 39 44 47 48 51 58 66 70 76 73 62 53 43 44 47 51 54 55 56 55 53 46 40 39 39 40 46
35 36 34 34 34 36 40 44 48 54 60 68 73 73 60 51 43 47 52 53 56 58 55 57 56 51 48 46 47 45 44 46
37 37 34 34 35 39 42 46 50 53 60 63 59 53 48 46 47 52 54 56 57 57 61 63 56 53 51 48 48 50 48 48
37 39 38 37 38 43 46 49 53 56 55 51 48 46 46 48 51 54 57 58 60 65 65 59 57 55 49 46 46 48 50 49
40 41 42 43 45 47 51 54 52 54 54 52 49 51 53 54 57 59 60 65 66 68 63 60 56 54 49 44 43 46 48 48
41 42 44 44 47 49 51 53 52 53 53 52 54 54 56 58 61 62 68 70 73 70 63 61 55 54 49 46 44 45 46 48
43 43 44 45 48 50 52 56 56 57 53 54 56 58 60 60 61 66 68 72 72 63 65 60 54 47 46 51 50 48 52 61
46 47 48 50 50 51 52 54 55 53 56 58 60 61 63 62 65 70 70 75 64 62 57 49 45 42 42 45 49 51 67 69
48 50 53 53 54 56 57 58 59 61 64 64 65 63 62 65 70 68 77 63 62 57 50 45 43 41 37 37 46 53 67 77
51 51 51 52 54 56 59 64 64 66 68 68 67 66 64 66 67 78 66 65 60 52 49 46 45 43 34 35 47 54 72 86
53 51 50 51 54 56 58 60 66 68 68 69 65 63 65 71 78 67 66 61 59 53 48 46 44 38 39 39 39 50 63 89
57 56 55 53 54 56 61 65 65 67 69 66 65 65 73 78 70 67 65 62 56 48 49 50 47 51 43 43 46 46 68 92
59 60 58 57 56 59 63 65 68 66 67 67 65 71 75 70 66 65 61 56 48 44 49 49 49 51 53 57 55 59 78 88

GFSFLT1_prec_cthk_231.txt.gz
RH
27 28 31 34 40 42 39 38 34 34 38 41 43 42 44 46 46 52 56 55 57 59 59 56 50 54 52 54 50 55 52 50
26 30 31 35 39 42 41 42 39 36 38 42 47 46 49 51 55 56 59 62 65 74 64 58 55 48 44 47 53 53 49 42
29 29 35 37 39 43 43 43 46 41 41 46 47 47 54 58 58 60 66 71 73 76 57 47 43 39 43 48 54 53 45 44
29 29 31 33 35 39 44 49 51 46 44 49 50 53 56 60 60 67 73 80 79 65 43 40 41 45 50 51 49 50 44 44
30 29 31 32 34 36 37 41 50 45 46 48 52 56 59 62 69 74 82 77 74 47 41 41 45 50 52 54 54 51 48 45
31 31 32 33 35 35 34 37 42 44 45 51 54 58 62 71 78 86 85 79 64 44 46 48 51 51 53 53 54 55 51 43
32 32 30 31 33 32 31 38 41 40 43 51 54 62 71 77 84 81 75 63 48 46 49 50 51 54 54 56 56 51 49 46
32 32 32 31 34 34 36 40 41 43 45 54 58 63 74 79 74 69 58 53 50 51 53 54 55 58 60 58 54 50 47 45
32 34 34 35 36 33 32 37 40 44 47 55 59 68 74 70 62 55 54 50 55 61 60 58 62 64 62 59 56 52 51 48
35 36 36 36 37 36 35 39 43 45 50 55 59 65 64 56 54 55 53 54 59 60 59 64 68 67 64 61 57 54 52 47
35 37 38 39 39 40 37 41 45 48 54 57 62 60 57 57 57 55 56 58 58 59 63 69 72 69 68 65 61 54 50 46
38 41 39 40 42 43 47 46 49 57 60 59 56 57 57 56 55 57 58 58 62 62 68 74 75 72 70 65 59 53 49 53
41 45 45 46 46 43 49 53 55 58 58 58 58 59 59 56 57 57 60 63 64 70 74 75 70 67 64 57 50 50 48 51
42 44 47 48 50 50 51 55 56 56 57 60 61 62 61 62 64 63 65 66 67 72 74 71 68 64 58 51 47 44 45 42
48 49 51 53 53 55 57 57 57 59 61 62 63 63 66 68 67 67 67 70 70 74 74 68 63 59 55 49 49 40 37 33
52 53 56 54 54 53 55 57 58 60 63 65 66 68 70 69 70 73 76 75 72 79 69 60 61 55 49 50 48 41 44 37
57 57 57 55 53 54 58 61 63 64 66 69 72 76 76 76 76 72 81 71 78 72 60 63 57 50 48 46 49 44 41 44
54 54 54 54 55 55 56 60 66 65 69 72 75 76 78 79 76 78 74 80 73 63 64 57 49 49 45 48 51 46 49 48
56 56 56 56 56 56 55 56 59 67 72 74 77 78 81 81 81 76 79 75 68 65 53 47 47 43 46 52 52 55 58 51

GFSFLT1_prec_cthk_237.txt.gz
RH
22 25 27 28 29 31 29 27 28 28 31 32 33 36 38 37 38 37 39 42 47 50 52 54 61 63 65 65 60 58 53 47
23 24 27 28 31 30 27 27 30 34 36 31 31 32 36 40 41 42 43 46 49 52 51 59 64 67 70 68 63 57 53 49
26 26 24 26 27 25 27 30 33 36 37 37 31 32 37 41 43 46 49 50 54 57 57 64 70 75 81 73 64 56 52 48
30 27 27 28 29 30 31 31 34 36 40 41 38 36 39 41 44 46 50 53 55 56 64 71 78 83 87 70 64 55 54 54
31 30 31 30 31 35 36 36 36 38 41 42 41 38 38 36 41 47 51 54 55 61 67 79 84 90 84 72 57 57 58 59
32 34 32 33 36 42 42 43 43 41 38 39 39 40 43 47 47 48 52 54 57 64 74 85 92 94 80 63 57 61 60 62
31 32 31 31 32 33 34 37 42 43 41 41 43 46 48 49 50 49 50 54 61 68 82 90 94 90 79 57 59 61 63 66
31 33 34 32 30 31 31 32 33 35 39 43 43 44 47 48 50 55 50 59 68 76 85 94 89 85 67 57 60 65 68 68
36 35 34 33 31 31 30 31 33 34 35 36 38 43 46 50 56 60 56 65 72 80 88 94 92 73 63 58 63 68 71 72
34 33 33 34 33 32 32 31 31 32 33 35 39 43 46 54 58 59 62 73 78 87 93 98 81 66 63 65 68 68 72 75
36 35 35 37 35 35 35 35 35 37 39 40 42 45 49 52 57 62 73 69 78 85 93 82 70 66 65 66 68 72 78 82
40 39 37 37 38 39 39 39 40 41 42 42 44 47 51 55 62 72 69 75 80 83 76 75 74 71 67 70 73 79 81 87
42 41 40 40 38 40 39 40 43 44 46 47 49 52 58 65 68 68 71 72 72 69 74 77 74 67 71 73 79 81 88 77
47 47 45 43 42 43 42 41 44 46 48 49 50 53 63 69 68 66 74 77 73 75 81 83 73 72 74 80 82 85 80 68
47 47 46 45 45 46 45 45 46 48 50 50 52 54 56 60 71 73 76 75 77 83 86 79 76 78 83 86 88 84 69 64
50 49 47 46 44 44 44 46 48 51 53 54 54 55 58 63 66 70 73 78 83 86 85 78 79 84 87 89 88 69 67 62
49 49 48 47 48 48 48 49 52 53 56 57 58 57 61 65 67 71 76 81 87 91 83 80 86 88 89 92 72 70 66 63
52 54 55 53 53 54 56 58 58 57 62 60 57 58 59 61 67 72 76 81 88 86 82 84 87 89 91 78 73 70 66 61
53 54 56 55 54 55 56 59 60 62 60 56 54 56 59 64 70 76 80 84 86 87 87 87 90 91 83 75 71 68 62 57

GFSFLT1_prec_cthk_243.txt.gz
RH
25 25 26 27 29 31 35 37 36 36 37 36 35 33 30 32 32 33 35 36 37 39 40 41 43 44 46 50 53 59 64 70
27 25 26 27 30 31 34 35 34 35 37 38 38 37 38 37 34 33 35 38 39 40 42 45 47 46 47 52 58 62 68 75
27 28 27 27 28 28 30 31 32 34 38 40 42 44 43 43 43 44 41 40 40 41 43 45 49 52 54 59 64 68 72 81
27 26 28 28 27 27 31 31 31 34 38 43 45 48 48 47 47 47 46 45 45 46 47 50 54 57 59 66 70 73 80 91
30 27 27 27 27 29 31 31 32 34 39 43 45 46 48 48 50 49 49 51 50 52 52 55 57 62 65 68 77 83 88 92
28 28 29 29 30 32 32 34 34 35 39 43 47 49 51 52 54 54 54 54 56 61 60 59 62 64 67 71 78 91 92 98
30 31 33 34 36 37 38 39 39 41 46 49 51 51 51 52 53 55 57 57 58 56 56 59 60 69 67 74 82 91 92 89
33 34 34 37 41 43 44 46 46 48 50 52 49 48 49 52 52 50 48 49 50 54 57 60 64 67 68 79 83 91 97 84
36 38 38 41 43 46 48 47 46 46 47 44 44 44 44 44 44 45 47 51 53 55 56 63 61 68 73 86 88 95 93 91
39 41 43 44 44 48 50 49 49 47 43 41 41 42 42 43 43 45 47 49 50 54 56 59 66 75 79 86 84 83 87 88
37 44 47 50 51 51 49 49 49 44 42 41 42 44 43 43 45 47 45 47 49 53 55 61 68 71 83 86 84 80 82 75
33 36 38 42 49 45 45 48 47 46 47 46 45 45 46 47 48 50 48 48 51 56 59 67 71 78 81 80 82 88 73 70
35 37 37 38 42 43 44 46 45 46 50 49 47 48 50 52 53 52 51 52 52 55 60 63 73 69 70 83 79 83 68 62
24 26 30 34 43 47 50 50 50 51 52 51 52 52 53 54 54 54 53 54 56 57 59 65 66 71 75 78 78 72 64 63
30 32 32 34 36 42 51 58 57 53 53 56 57 57 57 57 56 57 58 59 58 56 59 66 69 75 75 73 73 72 70 73
34 41 40 38 40 41 48 54 56 56 57 58 57 62 63 63 63 61 59 59 58 59 63 66 69 66 67 74 75 74 76 78
39 45 47 47 47 47 50 52 54 56 57 59 62 64 66 64 63 62 63 60 57 58 60 67 66 65 67 72 76 76 79 82
46 53 56 56 54 55 56 57 59 60 60 62 64 66 68 67 66 64 62 60 59 61 65 66 71 71 74 79 79 82 82 86
57 62 62 62 59 57 58 58 58 58 59 60 61 65 68 71 73 71 69 69 69 71 77 79 80 81 78 82 88 88 86 91

GFSFLT1_prec_cthk_246.txt.gz
RH
23 24 27 30 30 31 31 34 36 39 41 39 35 35 34 32 31 33 35 36 36 38 39 40 43 45 48 51 52 54 54 56
25 26 27 28 29 30 32 34 36 38 40 36 36 38 40 42 42 41 41 40 39 40 41 42 45 47 51 54 55 57 58 61
30 28 27 26 26 27 31 33 35 36 35 37 42 44 44 47 49 48 47 47 49 50 50 49 50 54 55 57 60 62 63 67
26 28 29 28 26 27 29 32 35 36 38 43 44 46 48 50 52 53 54 55 54 54 55 57 57 60 62 60 62 67 73 80
24 28 31 29 27 27 30 33 37 38 40 41 43 44 46 50 54 58 59 60 62 61 63 64 67 73 72 63 68 70 78 81
27 29 33 31 28 30 32 34 35 37 40 43 45 48 49 52 57 59 59 61 61 61 63 63 61 58 61 67 64 75 74 82
33 32 32 35 36 36 36 38 39 40 41 44 45 48 52 54 56 57 59 58 57 56 56 59 58 62 61 61 73 68 72 75
39 41 42 40 39 39 39 39 39 41 43 46 47 50 54 54 55 54 54 51 48 50 54 57 57 60 64 66 68 72 76 84
34 41 42 41 44 48 48 47 45 45 46 47 48 48 46 43 44 45 44 46 47 51 55 57 59 61 63 69 77 73 83 86
31 30 33 36 38 43 46 48 50 50 50 47 44 40 41 41 41 41 43 45 47 49 52 57 58 62 65 66 72 86 81 89
28 28 30 30 32 34 39 41 48 49 49 46 43 42 44 45 44 44 46 49 48 48 51 54 60 63 61 73 76 76 84 94
26 28 27 28 28 30 31 34 39 42 46 48 47 50 50 51 51 51 54 55 55 55 55 56 55 59 62 67 65 72 72 79
24 24 22 22 24 23 26 30 33 38 45 49 49 52 55 56 57 59 61 60 60 60 59 57 58 58 61 65 66 69 68 74
23 23 24 27 29 30 29 31 32 38 45 49 51 54 58 59 62 65 66 63 63 62 61 59 59 60 63 69 67 69 76 78
22 24 28 29 32 36 35 37 36 40 50 53 57 59 61 63 66 67 67 66 66 66 67 66 63 60 67 70 68 75 84 77
30 34 36 36 39 42 43 46 44 44 51 57 58 62 64 65 69 72 73 72 73 74 74 69 68 68 72 74 77 77 73 75
41 41 42 43 45 50 52 54 55 56 57 60 60 59 61 64 67 70 75 76 73 77 77 78 78 74 76 82 83 80 81 78
48 49 51 52 54 56 61 60 62 62 62 64 66 66 65 66 68 72 76 79 77 72 72 71 71 73 78 85 87 85 86 87
54 57 60 63 66 70 72 69 65 65 65 66 66 63 63 65 65 65 66 68 68 67 67 67 71 76 81 87 92 93 87 86